Time,TemperatureF,DewpointF,PressureIn,WindDirection,WindDirectionDegrees,WindSpeedMPH,WindSpeedGustMPH,Humidity,HourlyPrecipIn,Conditions,Clouds,dailyrainin,SoftwareType,DateUTC
2013-04-13 00:25:00,48.0,45.0,29.87,SSW,211,2.0,-999.0,91,-99.99,,,-99.99,,2013-04-13 07:25:00,
2013-04-13 00:35:00,48.0,45.0,29.87,SSW,211,2.0,-999.0,91,-99.99,,,-99.99,,2013-04-13 07:35:00,
2013-04-13 00:45:00,48.0,45.0,29.87,SSW,211,2.0,-999.0,91,-99.99,,,-99.99,,2013-04-13 07:45:00,
2013-04-13 00:54:00,48.0,45.0,29.87,SSW,211,2.0,-999.0,91,-99.99,,,-99.99,,2013-04-13 07:54:00,
2013-04-13 01:02:00,48.0,45.0,29.87,SSW,211,2.0,-999.0,91,-99.99,,,-99.99,,2013-04-13 08:02:00,
2013-04-13 02:25:00,47.0,45.0,29.86,South,173,4.0,-999.0,92,-99.99,,,-99.99,,2013-04-13 09:25:00,
2013-04-13 02:38:00,47.0,45.0,29.86,South,173,4.0,-999.0,92,-99.99,,,-99.99,,2013-04-13 09:38:00,
2013-04-13 02:52:00,47.0,45.0,29.86,South,173,4.0,-999.0,92,-99.99,,,-99.99,,2013-04-13 09:52:00,
2013-04-13 03:03:00,47.0,45.0,29.86,South,173,4.0,-999.0,92,-99.99,,,-99.99,,2013-04-13 10:03:00,
2013-04-13 04:24:00,47.0,45.0,29.84,WSW,247,17.0,-999.0,92,-99.99,,,-99.99,,2013-04-13 11:24:00,
2013-04-13 04:35:00,47.0,45.0,29.84,WSW,247,17.0,-999.0,92,-99.99,,,-99.99,,2013-04-13 11:35:00,
2013-04-13 04:45:00,47.0,45.0,29.84,WSW,247,17.0,-999.0,92,-99.99,,,-99.99,,2013-04-13 11:45:00,
2013-04-13 04:53:00,47.0,45.0,29.84,WSW,247,17.0,-999.0,92,-99.99,,,-99.99,,2013-04-13 11:53:00,
2013-04-13 05:03:00,47.0,45.0,29.84,WSW,247,17.0,-999.0,92,-99.99,,,-99.99,,2013-04-13 12:03:00,
2013-04-13 06:30:00,47.0,45.0,29.85,WSW,239,3.0,-999.0,91,-99.99,,,-99.99,,2013-04-13 13:30:00,
2013-04-13 06:35:00,47.0,45.0,29.85,WSW,239,3.0,-999.0,91,-99.99,,,-99.99,,2013-04-13 13:35:00,
2013-04-13 06:48:00,47.0,45.0,29.85,WSW,239,3.0,-999.0,91,-99.99,,,-99.99,,2013-04-13 13:48:00,
2013-04-13 06:54:00,47.0,45.0,29.85,WSW,239,3.0,-999.0,91,-99.99,,,-99.99,,2013-04-13 13:54:00,
2013-04-13 07:03:00,47.0,45.0,29.85,WSW,239,3.0,-999.0,91,-99.99,,,-99.99,,2013-04-13 14:03:00,
2013-04-13 08:29:00,50.0,47.0,29.88,SSW,193,4.0,-999.0,88,-99.99,,,-99.99,,2013-04-13 15:29:00,
2013-04-13 08:37:00,50.0,47.0,29.88,SSW,193,4.0,-999.0,88,-99.99,,,-99.99,,2013-04-13 15:37:00,
2013-04-13 08:44:00,50.0,47.0,29.88,SSW,193,4.0,-999.0,88,-99.99,,,-99.99,,2013-04-13 15:44:00,
2013-04-13 08:55:00,50.0,47.0,29.88,SSW,193,4.0,-999.0,88,-99.99,,,-99.99,,2013-04-13 15:55:00,
2013-04-13 09:03:00,50.0,47.0,29.88,SSW,193,4.0,-999.0,88,-99.99,,,-99.99,,2013-04-13 16:03:00,
2013-04-13 10:25:00,54.0,48.0,29.89,WSW,252,6.0,-999.0,80,-99.99,,,-99.99,,2013-04-13 17:25:00,
2013-04-13 10:38:00,54.0,48.0,29.89,WSW,252,6.0,-999.0,80,-99.99,,,-99.99,,2013-04-13 17:38:00,
2013-04-13 10:44:00,54.0,48.0,29.89,WSW,252,6.0,-999.0,80,-99.99,,,-99.99,,2013-04-13 17:44:00,
2013-04-13 11:01:00,54.0,48.0,29.89,WSW,252,6.0,-999.0,80,-99.99,,,-99.99,,2013-04-13 18:01:00,
2013-04-13 12:23:00,56.0,48.0,29.89,SW,236,12.0,-999.0,75,-99.99,,,-99.99,,2013-04-13 19:23:00,
2013-04-13 12:33:00,56.0,48.0,29.89,SW,236,12.0,-999.0,75,-99.99,,,-99.99,,2013-04-13 19:33:00,
2013-04-13 12:42:00,56.0,48.0,29.89,SW,236,12.0,-999.0,75,-99.99,,,-99.99,,2013-04-13 19:42:00,
2013-04-13 12:53:00,56.0,48.0,29.89,SW,236,12.0,-999.0,75,-99.99,,,-99.99,,2013-04-13 19:53:00,
2013-04-13 13:01:00,56.0,48.0,29.89,SW,236,12.0,-999.0,75,-99.99,,,-99.99,,2013-04-13 20:01:00,
2013-04-13 14:22:00,53.0,45.0,29.84,WSW,248,29.0,-999.0,75,-99.99,,,-99.99,,2013-04-13 21:22:00,
2013-04-13 14:33:00,53.0,45.0,29.84,WSW,248,29.0,-999.0,75,-99.99,,,-99.99,,2013-04-13 21:33:00,
2013-04-13 14:43:00,53.0,45.0,29.84,WSW,248,29.0,-999.0,75,-99.99,,,-99.99,,2013-04-13 21:43:00,
2013-04-13 14:52:00,53.0,45.0,29.84,WSW,248,29.0,-999.0,75,-99.99,,,-99.99,,2013-04-13 21:52:00,
2013-04-13 15:02:00,53.0,45.0,29.84,WSW,248,29.0,-999.0,75,-99.99,,,-99.99,,2013-04-13 22:02:00,
2013-04-13 16:22:00,52.0,43.0,29.83,West,262,22.0,-999.0,72,-99.99,,,-99.99,,2013-04-13 23:22:00,
2013-04-13 16:33:00,52.0,43.0,29.83,West,262,22.0,-999.0,72,-99.99,,,-99.99,,2013-04-13 23:33:00,
2013-04-13 16:42:00,52.0,43.0,29.83,West,262,22.0,-999.0,72,-99.99,,,-99.99,,2013-04-13 23:42:00,
2013-04-13 16:52:00,52.0,43.0,29.83,West,262,22.0,-999.0,72,-99.99,,,-99.99,,2013-04-13 23:52:00,
2013-04-13 17:01:00,52.0,43.0,29.83,West,262,22.0,-999.0,72,-99.99,,,-99.99,,2013-04-14 00:01:00,
2013-04-13 18:23:00,52.0,44.0,29.83,West,266,19.0,-999.0,74,-99.99,,,-99.99,,2013-04-14 01:23:00,
2013-04-13 18:33:00,52.0,44.0,29.83,West,266,19.0,-999.0,74,-99.99,,,-99.99,,2013-04-14 01:33:00,
2013-04-13 18:42:00,52.0,44.0,29.83,West,266,19.0,-999.0,74,-99.99,,,-99.99,,2013-04-14 01:42:00,
2013-04-13 18:52:00,52.0,44.0,29.83,West,266,19.0,-999.0,74,-99.99,,,-99.99,,2013-04-14 01:52:00,
2013-04-13 19:01:00,52.0,44.0,29.83,West,266,19.0,-999.0,74,-99.99,,,-99.99,,2013-04-14 02:01:00,
2013-04-13 20:22:00,50.0,43.0,29.84,West,279,20.0,-999.0,76,-99.99,,,-99.99,,2013-04-14 03:22:00,
2013-04-13 20:33:00,50.0,43.0,29.84,West,279,20.0,-999.0,76,-99.99,,,-99.99,,2013-04-14 03:33:00,
2013-04-13 20:42:00,50.0,43.0,29.84,West,279,20.0,-999.0,76,-99.99,,,-99.99,,2013-04-14 03:42:00,
2013-04-13 20:53:00,50.0,43.0,29.84,West,279,20.0,-999.0,76,-99.99,,,-99.99,,2013-04-14 03:53:00,
2013-04-13 21:02:00,50.0,43.0,29.84,West,279,20.0,-999.0,76,-99.99,,,-99.99,,2013-04-14 04:02:00,
2013-04-13 22:23:00,49.0,43.0,29.88,WNW,293,10.0,-999.0,79,-99.99,,,-99.99,,2013-04-14 05:23:00,
2013-04-13 22:32:00,49.0,43.0,29.88,WNW,293,10.0,-999.0,79,-99.99,,,-99.99,,2013-04-14 05:32:00,
2013-04-13 22:42:00,49.0,43.0,29.88,WNW,293,10.0,-999.0,79,-99.99,,,-99.99,,2013-04-14 05:42:00,
2013-04-13 22:52:00,49.0,43.0,29.88,WNW,293,10.0,-999.0,79,-99.99,,,-99.99,,2013-04-14 05:52:00,
2013-04-13 23:01:00,49.0,43.0,29.88,WNW,293,10.0,-999.0,79,-99.99,,,-99.99,,2013-04-14 06:01:00,